Weather History for KPOE - August, 2013

Change the Weather History Date:

Tuesday, August 27, 2013

  Actual Average Record
Temperature  
Mean Temperature 82 °F -  
Max Temperature 93 °F 89 °F 100 °F (2011)
Min Temperature 72 °F 70 °F 64 °F (2015)
Cooling Degree Days 18    
Growing Degree Days 32 (Base 50)    
Moisture  
Dew Point 68 °F    
Average Humidity 70    
Maximum Humidity 93    
Minimum Humidity 41    
Precipitation  
Precipitation 0.00 in - - ()
Sea Level Pressure  
Sea Level Pressure 30.09 in    
Wind  
Wind Speed 1 mph (ENE)    
Max Wind Speed 7 mph    
Max Gust Speed -    
Visibility 10 miles    
Events      
Averages and records for this station are not official NWS values.
T = Trace of Precipitation, MM = Missing Value Source: NWS Daily Summary

Daily Weather History Graph

Daily Weather History Graph

Search for Another Location

Airport or City:

Trip Planner

Search our weather history database for the weather conditions in past years. The results will help you decide how hot, cold, wet, or windy it might be!

Date:

Astronomy

Aug. 27, 2013 Rise Set
Actual Time 6:46 AM CDT 7:41 PM CDT
Civil Twilight 6:21 AM CDT 8:06 PM CDT
Nautical Twilight 5:51 AM CDT 8:35 PM CDT
Astronomical Twilight 5:21 AM CDT 9:05 PM CDT
Moon No Moon Rise 1:15 PM CDT (8/27)
Length of Visible Light 13h 45m
Length of Day
12h 55m
Waning Gibbous, 57% of the Moon is Illuminated
Aug 27
Waning Gibbous
Aug 28
Last Quarter
Sep 5
New
Sep 12
First Quarter
Sep 19
Full

Hourly Weather History & Observations

Time (CDT) Temp. Heat Index Dew Point Humidity Pressure Visibility Wind Dir Wind Speed Gust Speed Precip Events Conditions
12:55 AM 73.0 °F - 71.1 °F 93% 30.11 in 10.0 mi Calm Calm - N/A   Clear
1:55 AM 73.0 °F - 71.1 °F 93% 30.10 in 10.0 mi Calm Calm - N/A   Clear
2:55 AM 73.0 °F - 70.0 °F 90% 30.09 in 10.0 mi Calm Calm - N/A   Clear
3:55 AM 72.0 °F - 70.0 °F 93% 30.09 in 10.0 mi Calm Calm - N/A   Clear
4:55 AM 72.0 °F - 70.0 °F 93% 30.11 in 10.0 mi Calm Calm - N/A   Clear
5:55 AM 72.0 °F - 70.0 °F 93% 30.13 in 10.0 mi Calm Calm - N/A   Overcast
6:55 AM 73.0 °F - 71.1 °F 93% 30.15 in 10.0 mi Calm Calm - N/A   Overcast
7:55 AM 73.9 °F - 71.1 °F 91% 30.15 in 10.0 mi ESE 3.5 mph - N/A   Overcast
8:55 AM 75.9 °F - 71.1 °F 85% 30.15 in 10.0 mi Calm Calm - N/A   Overcast
9:55 AM 78.1 °F - 72.0 °F 81% 30.15 in 10.0 mi Calm Calm - N/A   Overcast
10:55 AM 82.0 °F 84.9 °F 68.0 °F 62% 30.15 in 10.0 mi North - - N/A   Overcast
11:55 AM 84.0 °F 86.5 °F 66.9 °F 56% 30.14 in - Calm Calm - N/A   Overcast
12:55 PM 86.0 °F 88.8 °F 66.9 °F 53% 30.12 in 10.0 mi WNW 3.5 mph - N/A   Overcast
1:55 PM 90.0 °F 91.7 °F 64.9 °F 43% 30.10 in 10.0 mi Variable 3.5 mph - N/A   Overcast
2:55 PM 90.0 °F 91.3 °F 64.0 °F 42% 30.07 in 10.0 mi Calm Calm - N/A   Clear
3:55 PM 93.0 °F 95.9 °F 66.0 °F 41% 30.06 in 10.0 mi East 6.9 mph - N/A   Mostly Cloudy
4:55 PM 89.1 °F 91.3 °F 66.0 °F 46% 30.05 in 10.0 mi Calm Calm - N/A   Mostly Cloudy
5:55 PM 90.0 °F 91.7 °F 64.9 °F 43% 30.04 in 10.0 mi Variable 5.8 mph - N/A   Overcast
6:55 PM 89.1 °F 91.0 °F 64.9 °F 45% 30.03 in 10.0 mi Calm Calm - N/A   Scattered Clouds
7:55 PM 84.0 °F 86.5 °F 66.9 °F 56% 30.04 in 10.0 mi ENE 3.5 mph - N/A   Partly Cloudy
8:55 PM 82.0 °F 85.5 °F 69.1 °F 65% 30.05 in 10.0 mi Calm Calm - N/A   Overcast
9:55 PM 79.0 °F - 69.1 °F 72% 30.06 in 10.0 mi Calm Calm - N/A   Clear
10:55 PM 79.0 °F - 69.1 °F 72% 30.05 in 10.0 mi Calm Calm - N/A   Clear
11:55 PM 75.9 °F - 68.0 °F 76% 30.05 in 10.0 mi Calm Calm - N/A   Clear